{"data":{"norad_id":49425,"intl_designator":"2021-104T","name":"STARLINK-3139","alt_names":[],"object_type":"PAYLOAD","status":"ACTIVE","operator":null,"country":"US","launch_date":"2021-11-13","launch_site_code":"AFETR","launch_vehicle":null,"mission":null,"orbit_class":"UNKNOWN","rcs_meters":null,"size_class":null,"mass_kg":null,"dimensions":null,"purposes":["comms"],"wikipedia_slug":null,"has_3d_model":false,"image_url":null,"decayed_at":null,"tle_current":{"epoch":"2026-05-24T23:37:53.513760Z","epoch_age_seconds":70242,"freshness":"FRESH","line1":"1 49425U 21104T   26144.98464715  .00001165  00000+0  91313-4 0  9996","line2":"2 49425  53.2147 246.6307 0001277  90.7686 269.3453 15.08834116250151","mean_motion":15.08834116,"eccentricity":0.0001277,"inclination_deg":53.2147,"raan_deg":246.6307,"arg_perigee_deg":90.7686,"mean_anomaly_deg":269.3453,"bstar":9.1313e-5,"rev_number":25015,"period_min":95.437926855572,"perigee_km":538.87795843425,"apogee_km":540.64478967899,"semimajor_km":6917.8983740566,"source":"CELESTRAK","updated_at":"2026-05-25T13:38:16.797954Z"}}}